Weather History for Cook, MN

Change the Weather History Date:

Sunday, May 26, 2013

  Actual Average Record
Temperature  
Mean Temperature 52 °F -  
Max Temperature 69 °F 64 °F 77 °F (2006)
Min Temperature 35 °F 39 °F 28 °F (2011)
Degree Days  
Heating Degree Days 13    
Growing Degree Days 2 (Base 50)    
Moisture  
Dew Point 34 °F    
Average Humidity 45    
Maximum Humidity 81    
Minimum Humidity 28    
Precipitation  
Precipitation 0.00 in - - ()
Sea Level Pressure  
Sea Level Pressure 30.23 in    
Wind  
Wind Speed 4 mph (SE)    
Max Wind Speed 14 mph    
Max Gust Speed 23 mph    
Visibility 10 miles    
Events      
Averages and records for this station are not official NWS values.
T = Trace of Precipitation, MM = Missing Value Source: NWS Daily Summary

Daily Weather History Graph

Daily Weather History Graph

Search for Another Location

Airport:

Trip Planner

Search our weather history database for the weather conditions in past years. The results will help you decide how hot, cold, wet, or windy it might be!

Date:

Astronomy

May. 26, 2013 Rise Set
Actual Time 5:20 AM CDT 8:55 PM CDT
Civil Twilight 4:41 AM CDT 9:34 PM CDT
Nautical Twilight 3:50 AM CDT 10:26 PM CDT
Astronomical Twilight 2:39 AM CDT 11:38 PM CDT
Moon 10:41 PM CDT (5/26) 6:51 AM CDT (5/26)
Length of Visible Light 16h 52m
Length of Day
15h 35m
Waning Gibbous, 96% of the Moon is Illuminated
May 26
Waning Gibbous
May 31
Last Quarter
Jun 8
New
Jun 16
First Quarter
Jun 23
Full

Hourly Weather History & Observations

Time (CDT) Temp. Windchill Dew Point Humidity Pressure Visibility Wind Dir Wind Speed Gust Speed Precip Events Conditions
12:16 AM 48.2 °F - 30.2 °F 50% 30.29 in 10.0 mi ESE 3.5 mph - N/A   Clear
12:36 AM 48.2 °F - 30.2 °F 50% 30.29 in 10.0 mi Calm Calm - N/A   Clear
12:57 AM 46.4 °F - 30.2 °F 53% 30.29 in 10.0 mi Calm Calm - N/A   Clear
1:16 AM 46.4 °F - 30.2 °F 53% 30.29 in 10.0 mi Calm Calm - N/A   Clear
1:36 AM 44.6 °F - 30.2 °F 57% 30.29 in 10.0 mi Calm Calm - N/A   Clear
1:57 AM 42.8 °F - 30.2 °F 61% 30.29 in 10.0 mi Calm Calm - N/A   Clear
2:17 AM 42.8 °F - 28.4 °F 57% 30.29 in 10.0 mi Calm Calm - N/A   Clear
2:36 AM 41.0 °F - 28.4 °F 61% 30.28 in 10.0 mi Calm Calm - N/A   Clear
2:57 AM 41.0 °F - 28.4 °F 61% 30.28 in 10.0 mi Calm Calm - N/A   Clear
3:17 AM 39.2 °F - 30.2 °F 70% 30.29 in 10.0 mi Calm Calm - N/A   Clear
3:36 AM 39.2 °F - 28.4 °F 65% 30.29 in 10.0 mi Calm Calm - N/A   Clear
3:57 AM 37.4 °F - 28.4 °F 70% 30.28 in 10.0 mi Calm Calm - N/A   Clear
4:17 AM 37.4 °F 34.9 °F 28.4 °F 70% 30.26 in 10.0 mi ENE 3.5 mph - N/A   Clear
4:36 AM 39.2 °F 37.0 °F 28.4 °F 65% 30.26 in 10.0 mi East 3.5 mph - N/A   Clear
4:57 AM 37.4 °F - 30.2 °F 75% 30.27 in 10.0 mi Calm Calm - N/A   Clear
5:17 AM 37.4 °F - 30.2 °F 75% 30.29 in 10.0 mi Calm Calm - N/A   Clear
5:36 AM 35.6 °F - 30.2 °F 81% 30.30 in 10.0 mi Calm Calm - N/A   Clear
5:57 AM 35.6 °F - 30.2 °F 81% 30.30 in 7.0 mi Calm Calm - N/A   Clear
6:16 AM 37.4 °F - 30.2 °F 75% 30.30 in 10.0 mi Calm Calm - N/A   Clear
6:36 AM 41.0 °F - 32.0 °F 70% 30.30 in 10.0 mi Calm Calm - N/A   Clear
6:57 AM 44.6 °F - 33.8 °F 66% 30.29 in 10.0 mi Calm Calm - N/A   Clear
7:16 AM 48.2 °F - 33.8 °F 58% 30.28 in 10.0 mi East 3.5 mph - N/A   Clear
7:36 AM 50.0 °F - 33.8 °F 54% 30.27 in 10.0 mi Calm Calm - N/A   Clear
7:57 AM 53.6 °F - 33.8 °F 47% 30.28 in 10.0 mi SE 4.6 mph - N/A   Clear
8:16 AM 55.4 °F - 35.6 °F 47% 30.29 in 10.0 mi Calm Calm - N/A   Clear
8:36 AM 57.2 °F - 35.6 °F 44% 30.29 in 10.0 mi SE 4.6 mph - N/A   Clear
8:57 AM 57.2 °F - 35.6 °F 44% 30.28 in 10.0 mi ESE 4.6 mph - N/A   Clear
9:16 AM 59.0 °F - 37.4 °F 45% 30.28 in 10.0 mi SE 6.9 mph - N/A   Clear
9:36 AM 60.8 °F - 37.4 °F 42% 30.27 in 10.0 mi SSE 8.1 mph - N/A   Clear
9:57 AM 62.6 °F - 37.4 °F 39% 30.26 in 10.0 mi SSE 6.9 mph - N/A   Clear
10:16 AM 62.6 °F - 37.4 °F 39% 30.25 in 10.0 mi SE 8.1 mph - N/A   Clear
10:36 AM 64.4 °F - 37.4 °F 37% 30.26 in 10.0 mi SE 9.2 mph - N/A   Clear
10:57 AM 64.4 °F - 37.4 °F 37% 30.25 in 10.0 mi SSE 6.9 mph 17.3 mph N/A   Clear
11:16 AM 64.4 °F - 37.4 °F 37% 30.25 in 10.0 mi ESE 11.5 mph - N/A   Clear
11:37 AM 64.4 °F - 37.4 °F 37% 30.24 in 10.0 mi SE 10.4 mph 16.1 mph N/A   Clear
11:57 AM 64.4 °F - 37.4 °F 37% 30.24 in 10.0 mi SE 11.5 mph 18.4 mph N/A   Clear
12:16 PM 64.4 °F - 37.4 °F 37% 30.24 in 10.0 mi SSE 12.7 mph 18.4 mph N/A   Clear
12:37 PM 66.2 °F - 35.6 °F 32% 30.23 in 10.0 mi SE 10.4 mph 18.4 mph N/A   Clear
12:56 PM 66.2 °F - 35.6 °F 32% 30.22 in 10.0 mi SE 10.4 mph 18.4 mph N/A   Clear
1:16 PM 66.2 °F - 37.4 °F 35% 30.22 in 10.0 mi ESE 9.2 mph 18.4 mph N/A   Clear
1:37 PM 66.2 °F - 35.6 °F 32% 30.23 in 10.0 mi South 12.7 mph 23.0 mph N/A   Clear
1:56 PM 66.2 °F - 35.6 °F 32% 30.22 in 10.0 mi ESE 9.2 mph 18.4 mph N/A   Clear
2:16 PM 68.0 °F - 35.6 °F 30% 30.20 in 10.0 mi SE 11.5 mph 19.6 mph N/A   Clear
2:36 PM 68.0 °F - 35.6 °F 30% 30.19 in 10.0 mi SE 11.5 mph 17.3 mph N/A   Clear
2:56 PM 69.8 °F - 35.6 °F 28% 30.18 in 10.0 mi SSE 6.9 mph 18.4 mph N/A   Clear
3:17 PM 69.8 °F - 37.4 °F 31% 30.18 in 10.0 mi SSE 9.2 mph - N/A   Clear
3:36 PM 69.8 °F - 37.4 °F 31% 30.17 in 10.0 mi SE 6.9 mph 16.1 mph N/A   Clear
3:56 PM 69.8 °F - 35.6 °F 28% 30.17 in 10.0 mi SSE 13.8 mph 17.3 mph N/A   Clear
4:17 PM 69.8 °F - 35.6 °F 28% 30.16 in 10.0 mi SSE 8.1 mph - N/A   Clear
4:36 PM 69.8 °F - 35.6 °F 28% 30.16 in 10.0 mi SSE 13.8 mph 18.4 mph N/A   Clear
4:56 PM 69.8 °F - 35.6 °F 28% 30.15 in 10.0 mi ESE 6.9 mph - N/A   Clear
5:17 PM 69.8 °F - 35.6 °F 28% 30.15 in 10.0 mi ESE 9.2 mph - N/A   Clear
5:36 PM 69.8 °F - 35.6 °F 28% 30.15 in 10.0 mi ESE 8.1 mph - N/A   Clear
5:57 PM 68.0 °F - 33.8 °F 28% 30.15 in 10.0 mi ESE 4.6 mph - N/A   Clear
6:17 PM 68.0 °F - 35.6 °F 30% 30.15 in 10.0 mi ESE 8.1 mph - N/A   Clear
6:36 PM 66.2 °F - 33.8 °F 30% 30.15 in 10.0 mi SE 9.2 mph - N/A   Clear
6:57 PM 66.2 °F - 33.8 °F 30% 30.15 in 10.0 mi SE 11.5 mph 17.3 mph N/A   Clear
7:16 PM 66.2 °F - 33.8 °F 30% 30.15 in 10.0 mi SSE 8.1 mph - N/A   Clear
7:37 PM 64.4 °F - 33.8 °F 32% 30.15 in 10.0 mi SE 5.8 mph - N/A   Clear
7:57 PM 64.4 °F - 35.6 °F 34% 30.15 in 10.0 mi SE 4.6 mph - N/A   Clear
8:16 PM 62.6 °F - 35.6 °F 37% 30.16 in 10.0 mi SE 6.9 mph - N/A   Clear
8:37 PM 62.6 °F - 35.6 °F 37% 30.16 in 10.0 mi SE 5.8 mph - N/A   Clear
8:57 PM 60.8 °F - 35.6 °F 39% 30.16 in 10.0 mi SE 6.9 mph - N/A   Clear
9:16 PM 60.8 °F - 35.6 °F 39% 30.17 in 10.0 mi SE 3.5 mph - N/A   Clear
9:37 PM 59.0 °F - 35.6 °F 42% 30.18 in 10.0 mi SE 5.8 mph - N/A   Clear
9:57 PM 57.2 °F - 35.6 °F 44% 30.18 in 10.0 mi SE 4.6 mph - N/A   Clear
10:16 PM 57.2 °F - 35.6 °F 44% 30.18 in 10.0 mi SE 4.6 mph - N/A   Clear
10:37 PM 55.4 °F - 35.6 °F 47% 30.18 in 10.0 mi ESE 3.5 mph - N/A   Clear
10:57 PM 53.6 °F - 33.8 °F 47% 30.17 in 10.0 mi ESE 4.6 mph - N/A   Clear
11:16 PM 53.6 °F - 30.2 °F 41% 30.17 in 10.0 mi ESE 3.5 mph - N/A   Clear
11:37 PM 51.8 °F - 28.4 °F 41% 30.16 in 10.0 mi Calm Calm - N/A   Clear
11:57 PM 51.8 °F - 28.4 °F 41% 30.15 in 10.0 mi Calm Calm - N/A   Clear